Location: Strawberry
(45.6646°N, 111.9596°W)
Time: 13:34:28
(UTC+00:00)

Transit 4A - Pass Details

Date: 05 October 2022
Orbit: 871 x 973 km, 66.8° (Epoch: 26 November)

Event Time Altitude Azimuth Distance (km) Brightness Sun altitude
Rises 10:55:18 0° 328° (NNW) 3,519 10.8 -27.5°
Reaches altitude 10° 10:59:25 10° 355° (N) 2,557 10.4 -26.9°
Maximum altitude 11:02:08 13° 23° (NNE) 2,322 10.5 -26.4°
Drops below altitude 10° 11:04:49 10° 51° (NE) 2,535 11.1 -26.0°
Sets 11:08:51 0° 78° (ENE) 3,463 12.2 -25.3°
